Ellington Field
KEFD : now visible

Airfield :











YOU CAN JOIN US ON...

 
LOGIN :

Register | Disclaimer

   EN    FR    IT 

 









Legend :    VFR   Marginal VFR   IFR   Intensive IFR   Very Intensive IFR
Visi :
Ceiling :
>= 8 km
>= 3000ft
5 to 8 km
1000 to 3000 ft
1500m to 5 km
500 to 1000 ft
800 to 1500m
200 to 500 ft
< 800m
< 200 ft
Symbols :   Thunderstorms  Fog  Heavy snow  Heavy precipitations  Wind > 20 kt






- Airport Elevation : 32 ft


KEFD - Ellington Field

CURRENT METAR :
  • 080950Z 20004KT 6SM BR BKN010 OVC013 23/22 A2988

EXPIRED METARs :
  • 080850Z 19006KT 6SM BR BKN007 OVC012 23/22 A2987
  • 080750Z 18008KT 5SM BR OVC008 23/23 A2988

TAF TAF KEFD
Valid from the 08 at 04:00 until the 09 at 10:00 UTC


080400Z 0804/0910 18006KT 8000 BR SCT003 BKN040 QNH2989INS
BECMG 0806/0807 18006KT 8000 BR OVC003 QNH2987INS
BECMG 0815/0816 VRB06KT 8000 BR BKN010 QNH2995INS
BECMG 0816/0817 23009KT 9000 BR SCT018 QNH2981INS TX29/0821Z TN22/0809Z



MET'MAP, your aeronautical weather chart ! - Copyright ORBIFLY December 2007 - Disclaimer

ORBIFLY MET'MAP TEAM :

Programming & Development : Alexandra Zaïnal
Concept & original design : Baudouin d'Aumeries
Assistance for programming : Marc-Olivier Méhu
Technical & hardware support : Manuel Goepfert

Contact : metmap@orbifly.com




SOURCES & CREDITS :

   NOAA       Earth
Advisory